Regional Weather Roundup
Issued by NWS

Home | Current Version | Previous Version | Text Only | Print | Product List | Glossary Off
Versions: 1 2 3 4 5 6 7 8 9 10 11 12 13 14 15 16 17 18 19 20 21 22 23 24 25 26 27 28 29 30 31 32 33 34 35 36 37 38 39 40 41 42 43 44 45 46 47 48 49 50

000
ASUS43 KLMK 050310
RWRKY
KENTUCKY REGIONAL WEATHER ROUNDUP
NATIONAL WEATHER SERVICE LOUISVILLE KY
1100 PM EDT TUE AUG 04 2015

NOTE "FAIR" INDICATES FEW OR NO CLOUDS BELOW 12,000 FEET
WITH NO SIGNIFICANT WEATHER AND/OR OBSTRUCTIONS TO VISIBILITY.

KYZ001>023-026-027-061>063-070>075-050400-
WESTERN AND SOUTH CENTRAL KENTUCKY

CITY           SKY/WX    TMP DP  RH WIND       PRES   REMARKS
PADUCAH        CLOUDY    78  69  73 E3        29.98S
HENDERSON      CLOUDY    70  66  88 CALM      29.99S
OWENSBORO      CLOUDY    72  70  93 S5        30.01R
HOPKINSVILLE   CLOUDY    77  66  68 E3        30.02R
BOWLING GREEN  CLOUDY    76  69  79 E6        30.04R
GLASGOW        MOCLDY    71  70  97 SE5       30.04F
$$

KYZ024-025-028>034-038-045-046-053-050400-
NORTH CENTRAL KENTUCKY

CITY           SKY/WX    TMP DP  RH WIND       PRES   REMARKS
LOUISVILLE/SDF CLOUDY    72  68  87 SE5       30.02R
LOUISVILLE/LOU CLOUDY    71  68  90 SW3       30.03R
FORT KNOX      CLOUDY    69  67  94 SE5       30.02R
$$

KYZ035>037-039>044-047>052-055>060-089>105-050400-
NORTHEAST KENTUCKY

CITY           SKY/WX    TMP DP  RH WIND       PRES   REMARKS
LEXINGTON      LGT RAIN  68  66  93 SW5       30.05F
COVINGTON      CLOUDY    72  60  66 CALM      30.04R
FRANKFORT      CLOUDY    68  65  90 CALM      30.03F
$$

KYZ054-064>069-076>088-106>120-050400-
SOUTHEAST KENTUCKY

CITY           SKY/WX    TMP DP  RH WIND       PRES   REMARKS
JACKSON        CLOUDY    69  67  93 W5        30.12R FOG
LONDON         LGT RAIN  71  66  84 NE5       30.11R
SOMERSET       CLOUDY    68  68 100 CALM      30.11R
MIDDLESBORO    CLOUDY    73  69  87 NE3       30.10S
MONTICELLO     MOCLDY    72  70  93 N7        30.13R
$$



USA.gov is the U.S. government's official web portal to all federal, state and local government web resources and services.